BAW965 EDDH-EGLL

Flight info

Callsign BAW965
Flight time 1h 13m
Altitude 36000
Route WSN5C WSN N125 ITMIZ DCT ABNED L980 LOGAN
Aircraft B752/M-SDE3FGHIM3RWXY/LB1

Departure

Time 2026-05-07 14:03
Airport Hamburg Helmut Schmidt Airport (EDDH)

Arrival

Time 2026-05-07 15:17
Airport London Heathrow Airport (EGLL)
Time Latitude Longitude Altitude Speed Heading
2026-05-07 13:27 53.62943 10.00286 50 ft 0 kts 122°
2026-05-07 13:42 53.62944 10.00282 50 ft 2 kts 122°
2026-05-07 13:43 53.62952 10.00260 50 ft 2 kts 122°
2026-05-07 13:43 53.62960 10.00239 50 ft 2 kts 122°
2026-05-07 13:43 53.62968 10.00218 49 ft 2 kts 122°
2026-05-07 13:43 53.62976 10.00197 49 ft 2 kts 122°
2026-05-07 13:44 53.62985 10.00176 49 ft 2 kts 141°
2026-05-07 13:44 53.62998 10.00165 49 ft 2 kts 169°
2026-05-07 13:44 53.63013 10.00165 49 ft 2 kts 197°
2026-05-07 13:44 53.63021 10.00171 50 ft 1 kts 213°
2026-05-07 13:45 53.63013 10.00163 49 ft 1 kts 210°
2026-05-07 13:45 53.63010 10.00160 50 ft 0 kts 210°
2026-05-07 13:47 53.62992 10.00141 49 ft 5 kts 213°
2026-05-07 13:48 53.62955 10.00100 49 ft 7 kts 213°
2026-05-07 13:48 53.62912 10.00056 49 ft 6 kts 205°
2026-05-07 13:48 53.62865 10.00024 49 ft 7 kts 206°
2026-05-07 13:48 53.62819 9.99976 49 ft 8 kts 210°
2026-05-07 13:49 53.62769 9.99928 49 ft 8 kts 209°
2026-05-07 13:49 53.62714 9.99877 49 ft 9 kts 208°
2026-05-07 13:49 53.62658 9.99818 49 ft 9 kts 225°
2026-05-07 13:49 53.62633 9.99710 48 ft 10 kts 258°
2026-05-07 13:50 53.62620 9.99599 48 ft 10 kts 260°
2026-05-07 13:50 53.62603 9.99442 48 ft 16 kts 258°
2026-05-07 13:50 53.62579 9.99248 47 ft 17 kts 261°
2026-05-07 13:50 53.62558 9.99047 47 ft 17 kts 259°
2026-05-07 13:51 53.62534 9.98841 47 ft 18 kts 259°
2026-05-07 13:51 53.62510 9.98627 46 ft 19 kts 259°
2026-05-07 13:51 53.62485 9.98403 45 ft 19 kts 260°
2026-05-07 13:51 53.62452 9.98173 44 ft 20 kts 247°
2026-05-07 13:52 53.62371 9.97972 43 ft 21 kts 230°
2026-05-07 13:52 53.62274 9.97777 42 ft 22 kts 230°
2026-05-07 13:52 53.62192 9.97608 41 ft 16 kts 233°
2026-05-07 13:52 53.62189 9.97451 41 ft 11 kts 298°
2026-05-07 13:53 53.62207 9.97410 41 ft 0 kts 321°
2026-05-07 13:56 53.62214 9.97401 41 ft 3 kts 323°
2026-05-07 13:56 53.62245 9.97369 41 ft 6 kts 328°
2026-05-07 13:56 53.62286 9.97338 41 ft 5 kts
2026-05-07 13:57 53.62320 9.97375 41 ft 0 kts 50°
2026-05-07 14:03 53.62349 9.97433 41 ft 29 kts 50°
2026-05-07 14:03 53.62674 9.98091 44 ft 115 kts 50°
2026-05-07 14:03 53.63348 9.99454 219 ft 176 kts 50°
2026-05-07 14:03 53.64131 10.01027 1345 ft 177 kts 51°
2026-05-07 14:04 53.64881 10.02564 2266 ft 180 kts 52°
2026-05-07 14:04 53.65712 10.04259 2939 ft 197 kts 52°
2026-05-07 14:04 53.66600 10.06071 3667 ft 207 kts 51°
2026-05-07 14:04 53.67514 10.07934 4472 ft 211 kts 51°
2026-05-07 14:05 53.68459 10.09864 5303 ft 216 kts 51°
2026-05-07 14:05 53.69527 10.11638 5995 ft 228 kts 31°
2026-05-07 14:05 53.71108 10.12342 6563 ft 248 kts 358°
2026-05-07 14:05 53.72752 10.11443 7406 ft 257 kts 327°
2026-05-07 14:06 53.73940 10.09179 8211 ft 265 kts 296°
2026-05-07 14:06 53.74366 10.06152 8923 ft 275 kts 276°
2026-05-07 14:06 53.74697 10.02884 9462 ft 289 kts 286°
2026-05-07 14:06 53.74940 10.01480 9838 ft 289 kts 286°
2026-05-07 14:07 53.75135 9.98120 10580 ft 296 kts 263°
2026-05-07 14:07 53.74359 9.94887 11180 ft 304 kts 236°
2026-05-07 14:07 53.73264 9.92028 12434 ft 289 kts 243°
2026-05-07 14:07 53.72484 9.88809 12773 ft 308 kts 252°
2026-05-07 14:08 53.71736 9.85301 13108 ft 327 kts 250°
2026-05-07 14:08 53.70894 9.81621 13394 ft 347 kts 249°
2026-05-07 14:08 53.69989 9.77746 13628 ft 366 kts 249°
2026-05-07 14:08 53.69023 9.73664 13871 ft 383 kts 249°
2026-05-07 14:09 53.68029 9.69495 14553 ft 386 kts 249°
2026-05-07 14:09 53.67023 9.65299 15212 ft 389 kts 249°
2026-05-07 14:09 53.66006 9.61073 15887 ft 392 kts 249°
2026-05-07 14:09 53.64789 9.56969 16496 ft 397 kts 237°
2026-05-07 14:10 53.63187 9.53191 17095 ft 400 kts 235°
2026-05-07 14:10 53.61570 9.49380 17739 ft 404 kts 235°
2026-05-07 14:10 53.59929 9.45544 18438 ft 406 kts 235°
2026-05-07 14:10 53.58274 9.41684 19085 ft 410 kts 235°
2026-05-07 14:11 53.56605 9.37804 19756 ft 413 kts 235°
2026-05-07 14:11 53.54915 9.33881 20390 ft 417 kts 234°
2026-05-07 14:11 53.53206 9.29923 20998 ft 421 kts 234°
2026-05-07 14:11 53.51491 9.25957 21618 ft 423 kts 234°
2026-05-07 14:12 53.49761 9.21961 22191 ft 426 kts 234°
2026-05-07 14:12 53.48014 9.17933 22756 ft 430 kts 234°
2026-05-07 14:12 53.46255 9.13887 23305 ft 433 kts 234°
2026-05-07 14:12 53.44485 9.09819 23866 ft 435 kts 234°
2026-05-07 14:13 53.42699 9.05723 24356 ft 439 kts 234°
2026-05-07 14:13 53.40895 9.01592 24836 ft 443 kts 234°
2026-05-07 14:13 53.39076 8.97433 25366 ft 447 kts 234°
2026-05-07 14:13 53.37239 8.93239 25886 ft 450 kts 234°
2026-05-07 14:14 53.35453 8.88926 26332 ft 454 kts 240°
2026-05-07 14:14 53.34069 8.84194 26805 ft 456 kts 249°
2026-05-07 14:14 53.32947 8.79230 27252 ft 460 kts 250°
2026-05-07 14:14 53.31819 8.74228 27729 ft 462 kts 250°
2026-05-07 14:15 53.30694 8.69205 28221 ft 464 kts 250°
2026-05-07 14:15 53.29570 8.64158 28661 ft 467 kts 250°
2026-05-07 14:15 53.28452 8.59059 29096 ft 470 kts 250°
2026-05-07 14:15 53.27326 8.53939 29487 ft 473 kts 250°
2026-05-07 14:16 53.26212 8.48774 29905 ft 475 kts 252°
2026-05-07 14:16 53.25225 8.43500 30298 ft 477 kts 253°
2026-05-07 14:16 53.24235 8.38232 30767 ft 478 kts 253°
2026-05-07 14:16 53.23241 8.32958 31288 ft 477 kts 252°
2026-05-07 14:17 53.22247 8.27703 31738 ft 476 kts 253°
2026-05-07 14:17 53.21253 8.22464 32180 ft 476 kts 253°
2026-05-07 14:17 53.20255 8.17219 32600 ft 475 kts 253°
2026-05-07 14:17 53.19257 8.11993 33017 ft 474 kts 253°
2026-05-07 14:18 53.18273 8.06766 33391 ft 474 kts 253°
2026-05-07 14:18 53.17290 8.01546 33792 ft 474 kts 253°
2026-05-07 14:18 53.16303 7.96328 34133 ft 474 kts 253°
2026-05-07 14:18 53.15315 7.91117 34479 ft 474 kts 253°
2026-05-07 14:19 53.14325 7.85906 34775 ft 474 kts 253°
2026-05-07 14:19 53.13333 7.80698 35053 ft 473 kts 253°
2026-05-07 14:19 53.12341 7.75504 35338 ft 472 kts 253°
2026-05-07 14:19 53.11348 7.70324 35628 ft 471 kts 253°
2026-05-07 14:20 53.10277 7.65212 35881 ft 470 kts 248°
2026-05-07 14:20 53.09020 7.60224 36051 ft 468 kts 248°
2026-05-07 14:20 53.07765 7.55247 36059 ft 467 kts 248°
2026-05-07 14:21 53.05238 7.45301 36062 ft 469 kts 248°
2026-05-07 14:21 53.02695 7.35366 36058 ft 468 kts 248°
2026-05-07 14:22 53.00136 7.25419 36057 ft 468 kts 247°
2026-05-07 14:22 52.97580 7.15534 36055 ft 468 kts 246°
2026-05-07 14:23 52.95012 7.05645 36052 ft 469 kts 246°
2026-05-07 14:23 52.92431 6.95754 36051 ft 469 kts 246°
2026-05-07 14:24 52.89847 6.85893 36052 ft 468 kts 247°
2026-05-07 14:24 52.87250 6.76026 36052 ft 468 kts 247°
2026-05-07 14:25 52.84645 6.66173 36053 ft 470 kts 247°
2026-05-07 14:25 52.82028 6.56315 36056 ft 470 kts 247°
2026-05-07 14:26 52.79393 6.46430 36058 ft 471 kts 247°
2026-05-07 14:26 52.76755 6.36578 36059 ft 471 kts 247°
2026-05-07 14:27 52.74102 6.26715 36061 ft 472 kts 246°
2026-05-07 14:27 52.71431 6.16826 36070 ft 474 kts 246°
2026-05-07 14:28 52.68758 6.06973 36074 ft 472 kts 246°
2026-05-07 14:28 52.66077 5.97128 36080 ft 473 kts 246°
2026-05-07 14:29 52.63375 5.87253 36081 ft 475 kts 246°
2026-05-07 14:29 52.60663 5.77384 36076 ft 475 kts 246°
2026-05-07 14:30 52.57939 5.67512 36071 ft 475 kts 246°
2026-05-07 14:30 52.55208 5.57657 36066 ft 476 kts 246°
2026-05-07 14:31 52.52476 5.47844 36063 ft 473 kts 246°
2026-05-07 14:31 52.49750 5.38081 36058 ft 465 kts 246°
2026-05-07 14:32 52.47061 5.28495 36062 ft 467 kts 244°
2026-05-07 14:32 52.44340 5.18842 36060 ft 464 kts 244°
2026-05-07 14:33 52.41649 5.09329 36061 ft 464 kts 244°
2026-05-07 14:33 52.38931 4.99768 36060 ft 463 kts 245°
2026-05-07 14:34 52.36225 4.90281 36059 ft 462 kts 245°
2026-05-07 14:34 52.33507 4.80792 36062 ft 462 kts 245°
2026-05-07 14:35 52.30775 4.71288 36066 ft 462 kts 245°
2026-05-07 14:35 52.28038 4.61806 36065 ft 462 kts 245°
2026-05-07 14:36 52.25296 4.52347 36062 ft 463 kts 245°
2026-05-07 14:36 52.22547 4.42901 36062 ft 463 kts 245°
2026-05-07 14:37 52.19782 4.33438 36067 ft 463 kts 244°
2026-05-07 14:37 52.15605 4.19213 36069 ft 463 kts 244°
2026-05-07 14:38 52.12830 4.09809 36071 ft 463 kts 244°
2026-05-07 14:38 52.10044 4.00405 36074 ft 463 kts 244°
2026-05-07 14:39 52.07249 3.91004 36074 ft 464 kts 244°
2026-05-07 14:39 52.04441 3.81603 36069 ft 464 kts 244°
2026-05-07 14:40 52.01622 3.72199 36075 ft 465 kts 244°
2026-05-07 14:40 51.98791 3.62790 36079 ft 465 kts 244°
2026-05-07 14:41 51.95955 3.53402 36077 ft 465 kts 244°
2026-05-07 14:41 51.93114 3.44036 36080 ft 465 kts 244°
2026-05-07 14:42 51.90267 3.34686 36072 ft 465 kts 243°
2026-05-07 14:42 51.87400 3.25305 36082 ft 465 kts 243°
2026-05-07 14:43 51.84948 3.15724 36082 ft 463 kts 256°
2026-05-07 14:43 51.84108 3.05416 36079 ft 466 kts 264°
2026-05-07 14:44 51.83461 2.95046 36071 ft 465 kts 264°
2026-05-07 14:44 51.82787 2.84691 36067 ft 465 kts 263°
2026-05-07 14:45 51.82097 2.74336 36064 ft 465 kts 263°
2026-05-07 14:45 51.81394 2.63983 36064 ft 465 kts 263°
2026-05-07 14:46 51.80683 2.53681 36058 ft 456 kts 263°
2026-05-07 14:46 51.80334 2.48688 35626 ft 447 kts 263°
2026-05-07 14:46 51.79988 2.43757 35010 ft 442 kts 263°
2026-05-07 14:47 51.79643 2.38873 34317 ft 440 kts 263°
2026-05-07 14:47 51.79296 2.33996 33582 ft 442 kts 262°
2026-05-07 14:47 51.78943 2.29063 32913 ft 445 kts 262°
2026-05-07 14:47 51.78586 2.24111 32341 ft 447 kts 262°
2026-05-07 14:48 51.78266 2.19128 31777 ft 449 kts 264°
2026-05-07 14:48 51.77979 2.14124 31196 ft 451 kts 264°
2026-05-07 14:48 51.77684 2.09100 30577 ft 452 kts 264°
2026-05-07 14:48 51.77386 2.04066 29955 ft 454 kts 264°
2026-05-07 14:49 51.77086 1.99022 29338 ft 453 kts 264°
2026-05-07 14:49 51.76785 1.94015 28758 ft 447 kts 264°
2026-05-07 14:49 51.76487 1.89085 28179 ft 441 kts 264°
2026-05-07 14:49 51.76190 1.84208 27618 ft 437 kts 264°
2026-05-07 14:50 51.75893 1.79376 27070 ft 433 kts 264°
2026-05-07 14:50 51.75597 1.74589 26530 ft 429 kts 264°
2026-05-07 14:50 51.75301 1.69836 25996 ft 426 kts 264°
2026-05-07 14:50 51.75006 1.65129 25467 ft 422 kts 264°
2026-05-07 14:51 51.74712 1.60468 24959 ft 417 kts 264°
2026-05-07 14:51 51.74418 1.55841 24310 ft 417 kts 264°
2026-05-07 14:51 51.74125 1.51247 23643 ft 411 kts 264°
2026-05-07 14:51 51.73833 1.46712 22995 ft 406 kts 264°
2026-05-07 14:52 51.73544 1.42229 22369 ft 403 kts 264°
2026-05-07 14:52 51.73253 1.37764 21754 ft 401 kts 264°
2026-05-07 14:52 51.72963 1.33326 21145 ft 398 kts 263°
2026-05-07 14:52 51.72673 1.28924 20552 ft 394 kts 263°
2026-05-07 14:53 51.72386 1.24578 19969 ft 390 kts 263°
2026-05-07 14:53 51.72099 1.20261 19389 ft 387 kts 263°
2026-05-07 14:53 51.71812 1.15981 18817 ft 385 kts 263°
2026-05-07 14:53 51.71526 1.11731 18249 ft 382 kts 263°
2026-05-07 14:54 51.71240 1.07501 17692 ft 380 kts 263°
2026-05-07 14:54 51.70954 1.03299 17131 ft 378 kts 263°
2026-05-07 14:54 51.70668 0.99118 16573 ft 376 kts 263°
2026-05-07 14:54 51.70382 0.94969 16038 ft 373 kts 263°
2026-05-07 14:55 51.70095 0.90828 15388 ft 372 kts 263°
2026-05-07 14:55 51.69816 0.86802 15290 ft 352 kts 263°
2026-05-07 14:55 51.69551 0.82996 15252 ft 333 kts 263°
2026-05-07 14:55 51.69298 0.79392 15221 ft 315 kts 263°
2026-05-07 14:56 51.69059 0.75988 15190 ft 299 kts 263°
2026-05-07 14:56 51.68825 0.72696 14831 ft 296 kts 263°
2026-05-07 14:56 51.68593 0.69421 14419 ft 295 kts 263°
2026-05-07 14:56 51.68362 0.66186 13657 ft 293 kts 263°
2026-05-07 14:57 51.68131 0.62958 12868 ft 289 kts 263°
2026-05-07 14:57 51.67903 0.59789 12121 ft 285 kts 263°
2026-05-07 14:57 51.67676 0.56645 11345 ft 283 kts 263°
2026-05-07 14:57 51.67450 0.53534 10586 ft 280 kts 263°
2026-05-07 14:58 51.67227 0.50461 9842 ft 277 kts 263°
2026-05-07 14:58 51.67010 0.47482 9354 ft 262 kts 263°
2026-05-07 14:58 51.66795 0.44556 9216 ft 269 kts 263°
2026-05-07 14:58 51.66571 0.41517 8964 ft 275 kts 263°
2026-05-07 14:59 51.66348 0.38481 8656 ft 271 kts 263°
2026-05-07 14:59 51.66127 0.35501 8375 ft 267 kts 263°
2026-05-07 14:59 51.65908 0.32551 8140 ft 266 kts 262°
2026-05-07 14:59 51.65688 0.29597 7884 ft 267 kts 262°
2026-05-07 15:00 51.65466 0.26626 7532 ft 268 kts 262°
2026-05-07 15:00 51.65244 0.23674 7205 ft 263 kts 262°
2026-05-07 15:00 51.65030 0.20818 7133 ft 251 kts 262°
2026-05-07 15:00 51.64825 0.18100 7111 ft 240 kts 262°
2026-05-07 15:01 51.64624 0.15437 7019 ft 243 kts 262°
2026-05-07 15:01 51.64469 0.12736 6986 ft 241 kts 264°
2026-05-07 15:01 51.64322 0.10044 6984 ft 243 kts 263°
2026-05-07 15:01 51.64173 0.07333 6979 ft 244 kts 263°
2026-05-07 15:02 51.64023 0.04616 6986 ft 243 kts 263°
2026-05-07 15:02 51.63873 0.01912 6981 ft 242 kts 263°
2026-05-07 15:02 51.63721 -0.00801 6986 ft 244 kts 263°
2026-05-07 15:02 51.63569 -0.03523 6986 ft 244 kts 263°
2026-05-07 15:03 51.63417 -0.06227 6983 ft 243 kts 263°
2026-05-07 15:03 51.63265 -0.08929 6989 ft 243 kts 263°
2026-05-07 15:03 51.63111 -0.11639 6988 ft 244 kts 263°
2026-05-07 15:03 51.62957 -0.14354 6987 ft 243 kts 263°
2026-05-07 15:04 51.62802 -0.17063 6992 ft 244 kts 263°
2026-05-07 15:04 51.62647 -0.19764 6985 ft 242 kts 263°
2026-05-07 15:04 51.62495 -0.22419 6979 ft 234 kts 263°
2026-05-07 15:04 51.62346 -0.24993 6978 ft 229 kts 263°
2026-05-07 15:05 51.62197 -0.27557 6991 ft 232 kts 263°
2026-05-07 15:05 51.62046 -0.30149 6983 ft 234 kts 263°
2026-05-07 15:05 51.61894 -0.32754 6986 ft 233 kts 263°
2026-05-07 15:05 51.61742 -0.35342 6986 ft 229 kts 264°
2026-05-07 15:06 51.61597 -0.37807 7001 ft 214 kts 263°
2026-05-07 15:06 51.61458 -0.40166 6982 ft 211 kts 263°
2026-05-07 15:06 51.61317 -0.42526 6989 ft 213 kts 264°
2026-05-07 15:06 51.61176 -0.44891 6984 ft 212 kts 264°
2026-05-07 15:07 51.61035 -0.47252 6983 ft 212 kts 264°
2026-05-07 15:07 51.60893 -0.49614 6984 ft 212 kts 264°
2026-05-07 15:07 51.60753 -0.51958 6973 ft 209 kts 264°
2026-05-07 15:07 51.60614 -0.54259 6980 ft 207 kts 264°
2026-05-07 15:08 51.60474 -0.56563 6982 ft 207 kts 264°
2026-05-07 15:08 51.60335 -0.58860 6978 ft 207 kts 264°
2026-05-07 15:08 51.60195 -0.61161 6980 ft 207 kts 264°
2026-05-07 15:08 51.60054 -0.63466 6984 ft 208 kts 264°
2026-05-07 15:09 51.59912 -0.65776 6933 ft 209 kts 264°
2026-05-07 15:09 51.59767 -0.68127 6670 ft 212 kts 264°
2026-05-07 15:09 51.59624 -0.70442 6422 ft 205 kts 264°
2026-05-07 15:09 51.59485 -0.72674 6208 ft 197 kts 265°
2026-05-07 15:10 51.59350 -0.74842 6053 ft 192 kts 264°
2026-05-07 15:10 51.58891 -0.76824 5787 ft 195 kts 230°
2026-05-07 15:10 51.57779 -0.78018 5475 ft 194 kts 200°
2026-05-07 15:10 51.56490 -0.78567 5134 ft 191 kts 191°
2026-05-07 15:11 51.55185 -0.78892 4799 ft 189 kts 186°
2026-05-07 15:11 51.53878 -0.79077 4469 ft 189 kts 183°
2026-05-07 15:11 51.52563 -0.79163 4135 ft 189 kts 180°
2026-05-07 15:11 51.51260 -0.79170 3804 ft 186 kts 175°
2026-05-07 15:12 51.50116 -0.78402 3594 ft 177 kts 138°
2026-05-07 15:12 51.49225 -0.77007 3431 ft 182 kts 134°
2026-05-07 15:12 51.48330 -0.75557 3245 ft 183 kts 134°
2026-05-07 15:12 51.47692 -0.73854 3045 ft 179 kts 99°
2026-05-07 15:13 51.47668 -0.71839 2875 ft 185 kts 89°
2026-05-07 15:13 51.47677 -0.69783 2647 ft 181 kts 90°
2026-05-07 15:13 51.47681 -0.67799 2414 ft 175 kts 90°
2026-05-07 15:13 51.47688 -0.65881 2187 ft 169 kts 90°
2026-05-07 15:14 51.47695 -0.64012 1970 ft 166 kts 91°
2026-05-07 15:14 51.47703 -0.62224 1787 ft 153 kts 91°
2026-05-07 15:14 51.47711 -0.60586 1564 ft 140 kts 91°
2026-05-07 15:14 51.47717 -0.59116 1376 ft 125 kts 91°
2026-05-07 15:15 51.47722 -0.57714 1224 ft 128 kts 91°
2026-05-07 15:15 51.47727 -0.56260 1061 ft 131 kts 90°
2026-05-07 15:15 51.47729 -0.54813 872 ft 130 kts 90°
2026-05-07 15:15 51.47737 -0.53350 697 ft 133 kts 90°
2026-05-07 15:16 51.47742 -0.51868 520 ft 132 kts 90°
2026-05-07 15:16 51.47741 -0.50408 344 ft 130 kts 90°
2026-05-07 15:16 51.47750 -0.48954 178 ft 129 kts 90°
2026-05-07 15:16 51.47754 -0.47527 92 ft 123 kts 90°
2026-05-07 15:17 51.47757 -0.46455 91 ft 65 kts 89°
2026-05-07 15:17 51.47758 -0.45906 90 ft 37 kts 92°
2026-05-07 15:17 51.47758 -0.45563 90 ft 24 kts 102°
2026-05-07 15:17 51.47686 -0.45468 89 ft 6 kts 180°
2026-05-07 15:18 51.47645 -0.45469 89 ft 6 kts 180°
2026-05-07 15:18 51.47605 -0.45483 89 ft 5 kts 227°
2026-05-07 15:18 51.47595 -0.45583 89 ft 13 kts 269°
2026-05-07 15:18 51.47595 -0.45741 90 ft 14 kts 269°
2026-05-07 15:19 51.47594 -0.45910 90 ft 15 kts 268°
2026-05-07 15:19 51.47594 -0.46087 90 ft 16 kts 269°
2026-05-07 15:19 51.47593 -0.46273 90 ft 17 kts 269°
2026-05-07 15:19 51.47593 -0.46468 90 ft 17 kts 270°
2026-05-07 15:20 51.47592 -0.46670 90 ft 18 kts 269°
2026-05-07 15:20 51.47585 -0.46881 90 ft 19 kts 265°
2026-05-07 15:20 51.47582 -0.47100 90 ft 20 kts 270°
2026-05-07 15:20 51.47581 -0.47326 90 ft 20 kts 269°
2026-05-07 15:21 51.47580 -0.47560 90 ft 21 kts 270°
2026-05-07 15:21 51.47579 -0.47800 90 ft 21 kts 269°
2026-05-07 15:21 51.47578 -0.48046 90 ft 20 kts 269°
2026-05-07 15:21 51.47578 -0.48265 90 ft 19 kts 269°
2026-05-07 15:22 51.47568 -0.48448 90 ft 12 kts 231°
2026-05-07 15:22 51.47481 -0.48476 90 ft 13 kts 179°
2026-05-07 15:22 51.47385 -0.48475 90 ft 14 kts 179°
2026-05-07 15:22 51.47321 -0.48488 90 ft 5 kts 230°
2026-05-07 15:23 51.47315 -0.48562 90 ft 5 kts 271°
2026-05-07 15:23 51.47315 -0.48590 90 ft 2 kts 269°